Wind_Speed
20 20 19 17 16 16 14 13 13 12 11 10 8 8 10 10 10 10 10 10 9 7 3 2 1 3 5 4 4 6 5 4 3 4 5 4 6 8 8 5 3 4 5 5 4 8 9 7 8 9 9 12 15 16 17 19 19 15 10 10 12 12 12 12 13 13 12 12 12 17 21 17 14 13 13 13 16 17 17 18 19 14 14 15 18 26 27 28
21 20 19 17 16 16 13 13 13 12 11 10 8 8 8 9 9 9 10 9 9 7 4 2 1 3 5 4 5 5 5 4 4 5 6 5 8 7 5 4 2 2 2 6 8 10 8 7 8 8 10 12 14 16 16 17 19 14 8 9 13 12 13 14 15 16 16 15 15 16 19 18 16 14 12 12 14 17 16 17 19 13 18 19 23 27 25 29
22 20 19 17 16 15 13 13 13 11 11 10 9 8 8 8 8 8 8 8 8 6 4 2 0 3 5 4 5 5 5 7 9 4 8 4 7 6 5 4 2 2 3 8 10 8 7 8 6 6 11 12 14 16 15 16 16 15 11 9 12 13 15 17 19 22 20 17 17 18 19 20 18 16 13 12 13 15 15 14 15 13 22 26 27 27 26 28
23 21 19 17 16 15 12 12 12 10 10 10 10 9 8 8 7 7 6 7 7 6 4 2 1 2 5 5 5 5 7 10 5 6 6 4 7 8 6 3 1 2 1 9 9 7 7 8 6 7 10 11 14 15 14 15 14 13 12 11 13 14 14 17 23 27 24 20 20 21 21 20 19 20 17 15 13 11 14 17 16 14 25 31 30 30 28 28
23 21 19 17 15 15 13 11 11 10 9 10 10 10 9 8 6 5 5 5 6 5 4 3 2 2 4 5 5 6 8 7 3 5 6 8 10 10 6 3 2 2 1 7 9 7 7 7 8 9 10 9 12 13 12 16 16 11 12 15 17 17 15 17 23 23 22 24 24 21 19 19 21 22 19 17 14 11 13 15 16 17 24 34 32 32 31 29
23 21 19 17 15 15 13 11 11 10 9 9 10 11 10 9 7 5 3 4 5 5 3 3 2 3 4 5 6 6 7 3 7 5 9 11 13 9 4 2 2 4 5 6 8 6 7 8 9 10 10 9 10 11 11 16 17 11 11 16 20 20 17 19 23 22 21 20 18 17 18 21 22 20 18 17 18 18 17 14 15 19 20 35 37 32 32 31
23 20 19 18 16 15 14 11 10 10 10 10 11 11 11 9 7 4 2 2 3 4 3 2 3 4 4 6 6 7 11 4 5 3 8 11 10 4 1 2 5 4 5 8 8 6 8 8 9 9 8 9 9 11 11 14 16 11 11 14 19 20 17 18 21 24 25 20 17 17 19 21 21 17 19 22 22 23 21 18 15 18 16 30 37 32 32 32
23 20 19 18 17 16 15 12 11 10 10 10 11 12 12 10 7 4 2 1 2 3 2 2 4 4 5 5 5 10 11 3 3 5 9 5 2 2 2 3 3 4 7 8 7 8 7 6 9 8 8 8 6 7 9 9 9 10 12 14 15 16 17 18 19 21 23 22 19 18 18 19 19 18 20 26 25 22 26 25 19 17 15 27 33 30 32 33
22 20 19 19 19 17 16 14 12 11 11 11 13 13 13 10 7 4 2 0 1 2 1 3 5 5 6 6 7 10 2 6 2 4 8 4 1 1 2 3 5 7 8 7 5 6 7 7 9 6 7 10 9 8 8 6 5 9 12 14 15 15 17 18 18 18 18 20 19 16 17 17 20 19 19 27 28 25 27 26 19 19 17 24 32 27 26 28
22 21 19 19 19 18 17 14 12 12 12 12 14 15 13 10 6 3 2 1 0 1 1 4 5 6 6 6 9 6 4 4 0 1 3 3 1 3 5 7 7 8 9 7 5 7 9 9 9 9 9 11 10 9 9 8 8 10 10 11 14 15 15 15 15 16 16 17 17 14 15 16 21 18 15 23 24 24 20 18 18 23 24 20 33 30 24 23
22 21 19 18 19 19 17 15 13 12 12 13 15 14 11 8 3 3 3 1 1 0 2 5 6 7 7 8 12 5 6 2 2 2 2 1 4 6 6 6 6 7 9 7 7 8 9 9 9 9 7 6 8 9 10 11 12 14 13 12 13 14 16 16 15 16 14 13 16 16 15 18 20 17 20 27 22 18 16 17 22 25 26 16 29 30 25 25
21 21 20 18 18 19 18 16 13 12 13 14 15 13 9 5 2 4 3 2 1 1 3 5 6 8 10 11 11 3 5 2 3 3 5 3 5 6 6 7 6 8 9 10 10 6 6 8 9 10 9 7 8 8 5 7 11 13 12 11 12 13 15 17 17 18 15 12 16 16 14 16 17 21 30 33 26 24 22 21 25 27 28 18 26 28 26 30
22 22 21 19 17 18 18 16 13 12 13 14 14 11 7 3 3 4 3 2 1 1 4 6 7 8 11 11 4 1 5 4 3 3 5 5 6 7 8 6 6 8 9 10 11 8 6 7 9 13 14 12 10 9 9 10 12 12 11 9 10 11 11 15 17 19 17 14 17 14 10 13 17 25 32 31 29 29 29 26 27 30 30 24 21 26 28 32
22 23 23 21 17 16 18 16 13 12 12 13 13 9 5 1 3 3 2 2 2 3 4 6 8 7 9 9 2 1 4 3 6 5 4 5 7 9 10 9 6 7 8 9 10 10 8 8 10 13 13 13 13 13 13 11 10 10 10 8 8 8 8 12 15 16 16 15 20 16 9 12 15 21 26 27 30 32 32 28 29 32 30 28 24 25 30 32
23 24 23 21 17 16 18 16 12 11 11 13 11 7 4 0 2 3 3 3 3 4 5 6 6 6 10 11 5 2 3 3 6 4 4 7 9 11 8 9 7 6 8 9 10 10 10 9 11 12 12 14 14 11 9 8 8 8 8 7 7 8 8 11 12 13 13 13 20 17 10 12 14 17 22 24 29 32 33 30 30 35 32 30 29 26 33 34
24 25 24 20 16 16 18 16 11 10 11 12 10 5 2 0 1 3 3 4 6 6 6 6 6 7 9 5 4 5 4 5 4 4 8 7 7 11 9 6 9 9 9 8 9 10 10 11 12 13 13 12 11 9 7 7 8 7 7 7 7 8 7 8 11 12 13 11 16 17 10 10 11 15 21 23 26 30 32 32 32 35 32 30 31 27 30 33
25 25 23 19 16 16 19 15 11 9 11 11 8 4 2 1 2 2 3 5 7 7 8 9 9 10 10 5 4 8 6 5 5 9 12 6 3 9 11 10 11 12 12 10 10 11 11 12 11 11 10 9 7 7 7 7 7 5 6 7 8 11 9 8 11 11 10 10 12 15 14 12 12 15 20 23 25 27 29 31 33 33 30 29 31 31 30 25
25 25 23 19 16 18 18 15 11 9 11 10 5 2 2 2 3 2 5 6 6 8 10 11 10 8 8 8 7 8 6 7 7 9 11 9 6 6 9 11 12 12 13 11 11 12 11 11 10 8 7 8 7 6 7 7 7 6 6 7 8 11 12 10 10 8 7 10 12 13 14 16 16 15 20 24 26 26 27 29 31 30 30 31 29 28 29 22
24 24 23 19 17 18 17 15 11 9 10 7 4 4 4 4 5 6 7 7 8 7 5 7 10 6 7 6 5 7 9 9 9 9 9 11 7 6 9 12 12 12 12 9 8 10 9 8 8 6 6 7 4 6 8 8 9 10 9 8 9 9 10 11 12 11 11 12 12 14 14 16 17 15 18 22 26 27 26 28 28 28 28 31 27 22 25 27
24 23 22 19 17 18 16 13 10 10 8 6 6 8 7 5 5 5 4 11 16 9 8 4 5 8 12 9 9 9 12 10 10 9 5 6 7 9 12 11 12 11 9 9 6 6 9 8 6 7 9 5 4 9 13 11 11 12 11 10 11 10 9 11 13 13 12 11 13 16 15 14 16 16 17 21 24 24 24 25 27 28 29 27 26 23 24 29
24 23 22 19 18 18 16 12 10 9 7 6 10 10 8 10 5 4 7 11 16 8 8 8 6 11 10 8 10 10 11 10 9 8 3 4 8 10 8 7 10 7 4 11 10 7 10 9 7 9 8 4 6 14 14 12 12 12 10 10 10 9 8 11 13 14 11 9 11 14 15 15 15 16 18 20 21 19 22 22 21 28 30 27 27 26 24 24
25 23 21 19 17 18 15 11 9 9 5 5 10 9 8 11 8 8 10 11 14 8 7 9 8 10 7 5 6 4 8 10 9 7 3 5 9 8 4 4 9 6 1 6 9 8 9 8 10 10 7 6 12 15 12 12 12 10 8 8 8 7 8 10 11 13 11 7 9 11 13 14 15 16 19 19 17 19 26 27 24 26 28 29 26 26 27 24
25 24 21 19 17 16 14 10 9 9 7 5 8 8 8 10 8 8 8 10 13 10 9 8 7 8 5 5 4 2 9 10 7 5 2 6 10 9 8 6 6 6 4 5 4 5 6 5 10 13 9 11 15 13 12 11 8 8 7 6 6 6 7 7 6 7 9 9 10 12 11 11 14 14 17 21 19 21 29 31 28 25 27 30 26 23 26 26
26 25 22 18 15 14 12 9 9 11 9 5 6 7 8 9 9 9 8 9 10 9 8 3 4 5 3 6 5 5 11 9 7 7 4 6 10 8 9 7 6 4 4 9 10 8 7 7 6 10 9 12 14 12 10 7 5 7 9 7 7 9 10 8 6 6 8 10 11 11 11 8 12 14 14 17 18 21 25 24 23 24 28 31 28 25 25 27
26 26 23 18 14 12 9 7 8 10 8 5 3 6 9 9 8 8 7 8 7 6 7 4 3 4 2 5 4 7 13 10 5 9 6 7 10 8 8 7 6 5 3 5 7 9 9 6 3 7 11 12 13 10 7 7 5 5 7 7 8 13 14 11 9 7 6 7 8 9 10 7 9 15 14 13 14 18 19 19 22 25 26 24 24 25 25 27
27 27 24 17 13 10 7 5 5 8 9 5 4 8 9 8 9 7 5 5 3 3 7 7 4 2 4 6 5 6 10 5 2 9 8 6 8 8 8 6 5 4 5 4 6 6 4 3 4 8 12 12 11 7 5 6 5 4 7 7 10 14 14 12 11 7 5 5 6 8 9 7 7 12 14 14 15 17 16 16 21 22 21 21 23 26 24 25
27 27 24 17 11 9 7 5 5 8 9 6 6 10 8 7 8 5 3 4 2 2 2 3 1 2 5 7 7 7 6 5 4 7 6 5 6 7 7 6 4 4 6 5 4 2 2 6 8 9 11 10 7 6 3 4 4 3 7 9 11 13 13 14 11 6 5 5 7 9 10 9 6 8 13 14 16 15 15 17 18 18 20 22 24 24 20 22
27 28 23 16 10 8 7 6 5 7 9 8 8 9 6 7 7 3 4 2 2 2 1 4 4 4 6 8 9 9 8 9 6 3 3 7 8 8 8 7 7 7 6 6 5 1 3 9 8 7 8 5 5 7 4 6 7 5 8 11 12 13 12 13 11 6 4 4 6 8 8 9 6 6 12 13 14 14 17 18 16 17 20 21 23 24 23 25
27 27 22 16 9 5 7 7 5 5 7 9 8 7 7 7 4 2 4 2 2 2 1 3 2 1 5 9 7 5 8 8 6 6 7 8 6 7 8 8 10 10 9 9 7 5 4 7 7 8 6 1 4 7 5 6 6 5 10 14 14 12 9 9 9 7 4 5 7 6 8 8 2 6 8 5 7 8 13 16 13 14 12 8 11 16 16 11
26 25 21 16 7 3 5 7 5 4 7 10 9 7 8 6 3 4 3 1 1 1 2 3 5 3 5 7 3 5 9 6 7 9 7 7 6 8 9 8 9 8 9 8 6 8 10 6 4 7 4 1 5 4 2 5 6 6 8 13 13 8 6 6 7 7 6 6 6 8 11 8 0 5 7 3 4 6 2 8 11 7 9 19 16 13 14 19
25 22 20 14 5 3 5 6 5 5 8 12 10 7 6 4 4 5 2 1 1 2 2 3 8 6 7 7 3 6 8 6 7 8 5 5 5 6 8 5 4 3 6 7 4 7 11 5 3 4 1 4 7 1 2 5 7 5 5 7 8 5 4 5 5 6 6 4 5 9 6 2 3 2 4 8 10 14 12 4 5 8 17 23 22 22 24 26
23 20 17 11 4 4 4 5 5 6 9 10 10 7 5 4 4 3 2 2 3 3 3 2 7 7 7 7 5 6 5 4 8 6 4 5 3 3 5 3 4 4 2 3 3 7 6 3 7 8 3 5 6 2 1 3 4 5 3 5 5 3 3 4 5 3 4 4 7 8 0 8 4 2 7 11 11 13 15 14 14 17 19 21 20 21 22 23
21 18 13 6 2 3 4 6 7 7 8 8 8 7 5 4 3 1 4 2 0 3 2 2 6 7 8 6 4 5 4 3 9 6 4 5 4 4 5 5 7 7 3 0 2 5 3 3 7 6 5 9 9 5 3 2 2 3 1 2 3 3 1 3 4 2 2 5 6 8 4 5 5 1 6 10 8 10 14 17 17 19 20 20 20 20 20 21
18 14 9 5 2 2 4 7 7 7 7 7 6 5 4 5 2 1 3 4 5 3 4 3 5 7 7 6 3 5 4 4 6 6 5 4 2 3 5 5 6 7 5 3 0 3 4 3 4 2 2 9 10 6 6 6 5 1 4 4 2 4 4 3 2 1 1 3 5 7 3 4 6 4 4 9 10 10 14 15 15 16 17 17 18 19 19 20
15 10 7 6 3 4 5 6 7 7 7 6 5 5 4 4 3 4 4 6 5 5 6 5 7 6 4 4 3 4 2 4 5 5 4 3 3 4 4 5 7 8 6 4 2 3 7 2 2 4 5 7 9 8 8 8 5 1 3 3 2 5 6 3 1 2 3 3 3 4 2 5 5 7 7 7 10 13 13 11 12 14 14 15 17 17 18 18
12 7 7 6 4 5 6 6 7 8 7 5 6 4 2 3 5 5 4 6 6 7 8 7 5 5 3 2 2 3 1 3 6 5 3 3 3 5 6 5 6 8 6 5 2 1 4 4 2 6 7 5 8 10 9 8 4 2 3 2 2 8 9 5 1 1 1 1 1 1 6 6 5 7 7 6 8 11 11 10 11 11 11 13 14 16 16 15
11 4 8 7 3 4 6 5 7 7 6 6 5 4 4 3 5 5 5 5 5 3 6 6 2 3 5 3 3 4 4 4 6 4 3 3 2 5 7 5 6 9 7 5 3 2 2 5 3 5 7 5 9 12 10 8 6 4 4 5 6 9 9 5 1 2 2 1 2 4 8 6 4 4 6 8 10 10 10 11 11 10 10 11 13 15 15 14
11 5 7 6 3 3 7 6 6 7 6 6 6 6 5 3 6 6 6 5 5 3 4 4 3 3 4 4 5 6 6 5 4 4 3 3 2 4 7 5 6 9 9 6 3 2 3 4 2 5 8 7 9 9 6 7 8 7 7 6 5 5 4 3 2 2 4 2 2 6 8 3 1 4 7 10 12 12 11 11 11 11 11 11 13 15 14 14
10 6 5 4 3 4 7 7 6 7 6 6 5 4 4 3 6 8 7 5 4 4 3 3 3 3 3 4 6 6 6 5 5 4 2 2 3 3 5 5 5 9 12 9 5 2 2 1 1 4 5 6 7 5 4 6 6 7 8 6 4 4 4 3 3 4 3 3 4 6 6 4 4 5 8 10 11 10 9 9 9 10 12 13 14 14 14 14
8 7 5 4 4 6 7 8 6 6 5 6 5 1 2 4 6 9 8 4 3 4 3 4 4 4 5 5 6 6 6 6 6 3 2 4 3 2 3 7 6 8 11 10 7 5 2 1 2 3 0 2 3 2 4 5 5 6 6 6 6 4 5 5 4 6 3 2 4 4 5 5 4 4 7 10 10 9 10 9 8 10 13 14 15 15 14 14
9 8 4 3 6 5 6 7 6 6 5 5 5 3 5 6 5 4 4 4 1 4 3 3 4 5 5 6 5 6 6 6 4 2 2 4 3 1 5 8 7 7 8 6 5 6 3 2 4 4 2 4 2 2 6 7 6 5 4 4 6 4 4 5 4 4 2 2 2 3 5 5 4 3 6 9 9 9 11 12 10 12 15 15 15 15 15 16
9 6 1 4 8 3 5 5 6 8 4 1 2 4 4 3 4 5 2 5 4 2 2 1 3 4 4 4 4 6 6 6 4 3 4 5 5 5 7 8 8 7 6 4 4 3 3 3 4 5 3 5 3 2 6 9 6 5 5 4 5 4 3 3 3 4 6 5 2 3 6 3 3 4 7 9 9 10 13 14 13 13 15 15 15 15 15 16
9 6 2 5 9 2 5 5 5 6 2 2 2 3 4 2 4 3 3 3 1 3 3 3 2 2 3 4 5 6 6 4 4 4 6 6 6 6 7 7 8 8 5 3 3 2 2 3 3 4 2 4 3 1 6 10 8 5 5 6 5 6 6 4 3 4 5 6 4 2 5 3 3 6 9 11 13 14 15 15 14 14 15 16 17 17 16 17
13 11 4 4 6 3 5 4 4 5 3 3 3 2 4 1 3 4 5 4 1 1 3 4 3 2 1 4 6 5 5 3 3 5 6 6 5 5 6 6 6 7 7 4 4 3 2 2 4 4 2 2 2 1 3 8 8 5 5 7 7 9 9 6 4 2 2 5 8 2 3 3 2 5 10 12 14 14 15 16 16 15 16 17 18 18 18 18
12 10 6 3 1 3 6 5 4 4 5 5 4 3 3 2 1 3 6 6 2 1 4 4 4 5 3 4 5 5 3 2 3 6 6 5 5 3 4 6 6 8 8 4 3 3 2 3 4 4 4 3 3 1 2 5 6 4 6 9 9 11 11 7 4 3 2 4 7 4 3 2 3 7 12 13 13 13 15 17 17 17 18 19 18 18 18 19
8 5 4 3 3 6 7 6 5 5 4 4 4 5 4 1 3 1 3 6 3 1 5 6 4 5 4 4 6 5 4 3 2 5 6 5 5 3 4 6 6 8 4 0 3 4 2 4 4 4 5 4 5 5 3 3 5 5 8 11 11 11 12 8 4 4 4 4 3 6 6 4 6 11 13 13 13 13 14 17 18 19 19 19 19 19 20 20
5 3 5 5 5 6 5 3 4 4 4 4 3 4 4 2 2 3 1 4 3 1 5 5 4 3 4 5 5 4 5 4 2 4 6 6 5 4 4 6 6 5 2 1 7 5 2 4 5 6 7 6 7 7 5 5 6 8 9 10 11 11 11 9 7 6 7 4 3 7 8 6 7 12 13 13 14 13 14 17 19 20 20 20 21 22 22 23
5 5 4 4 4 5 5 4 5 6 5 3 3 4 5 4 4 2 2 3 5 3 3 4 4 4 4 5 5 4 6 6 3 3 6 6 6 6 4 3 4 2 3 3 9 5 1 4 5 6 7 7 6 6 5 6 7 8 9 10 10 10 10 10 9 8 7 4 4 7 9 6 6 10 11 12 13 14 15 18 19 19 20 20 22 23 24 25
9 8 5 6 7 8 7 8 8 7 5 3 2 3 5 6 4 3 2 2 4 4 3 4 4 2 3 4 4 4 6 6 4 5 7 6 6 6 4 2 4 4 2 5 6 3 1 3 3 4 5 5 4 4 4 5 7 8 10 10 10 9 9 8 8 7 7 7 7 8 7 5 6 8 9 11 14 15 15 17 18 19 20 21 22 23 24 26
8 7 6 9 10 8 8 8 7 6 3 2 3 4 4 6 4 2 2 3 5 5 3 5 5 3 3 5 5 4 5 6 6 6 6 6 5 5 4 2 5 6 6 5 3 1 2 1 2 3 3 4 4 5 4 2 5 8 9 10 9 9 8 7 7 7 6 6 8 8 6 5 6 8 10 12 14 15 15 17 18 18 19 21 23 23 25 26
5 5 6 8 7 6 8 7 4 5 3 2 3 3 3 4 3 3 2 7 9 5 3 5 7 5 4 4 4 4 5 7 8 7 6 6 5 4 4 4 6 6 5 4 3 3 3 1 3 3 2 3 5 7 6 3 3 5 7 10 9 8 7 7 6 6 6 5 7 7 6 5 7 9 11 13 14 15 15 17 18 18 19 21 22 24 25 25
6 6 6 7 6 6 7 6 5 4 2 1 4 5 5 4 1 2 4 7 7 3 1 2 4 5 4 4 4 5 7 9 9 8 7 7 5 4 3 4 5 4 4 3 3 2 2 2 3 3 2 2 5 8 7 5 3 3 5 7 7 6 6 6 5 6 6 3 4 5 5 5 6 9 11 11 13 14 16 17 18 18 18 19 21 24 26 26
Wind_Direction
7 7 7 7 7 8 11 13 13 12 14 18 18 13 11 10 11 13 13 14 15 18 30 38 82 144 148 137 134 138 156 151 76 319 261 249 282 283 283 303 15 80 69 46 357 298 265 242 239 226 222 226 224 230 230 227 225 219 223 235 241 243 240 245 251 257 269 266 257 259 261 263 263 250 235 238 241 238 235 229 225 205 161 155 145 145 153 153
6 6 6 5 5 8 12 13 13 13 17 20 18 14 10 8 10 12 15 16 16 15 22 40 105 162 169 160 155 172 206 207 316 304 220 243 294 286 286 313 15 102 41 3 325 290 268 253 240 216 223 233 221 220 227 225 224 225 227 233 238 244 249 254 259 261 265 272 276 267 266 267 261 258 247 241 238 231 234 228 223 191 141 138 137 146 155 154
5 4 4 4 3 6 9 11 13 14 18 21 19 14 7 5 5 10 16 18 21 13 11 28 73 180 192 189 186 215 240 260 287 244 186 254 308 305 316 321 346 113 56 12 337 305 295 290 279 230 233 239 226 215 217 221 223 227 229 239 242 245 254 261 266 266 268 278 281 275 280 282 272 264 255 255 245 226 233 231 220 185 141 137 139 149 156 156
3 2 3 4 2 3 5 7 11 12 16 19 16 12 5 359 356 3 13 19 23 14 6 1 343 206 214 219 220 238 272 288 295 152 177 295 329 324 317 319 340 172 11 349 321 294 298 290 276 256 249 248 234 221 216 219 221 222 224 243 254 256 260 259 261 264 271 277 275 276 277 277 280 268 245 246 253 230 231 231 226 199 151 144 147 151 158 162
3 2 2 3 3 360 1 2 6 8 10 9 6 3 360 352 347 352 4 18 22 16 7 342 313 262 238 231 240 251 277 299 98 148 246 292 316 319 311 334 347 191 320 324 294 277 280 267 261 256 250 255 244 228 218 221 228 231 232 245 257 263 269 264 263 264 264 265 267 277 280 276 286 279 250 234 244 241 236 232 232 222 167 153 157 157 162 167
4 4 3 4 3 358 357 356 359 2 1 357 353 351 349 345 337 332 349 16 20 17 6 340 298 266 251 236 244 242 268 325 114 195 271 292 302 304 300 352 84 88 38 321 291 277 271 262 252 243 239 248 248 235 216 219 229 238 245 250 257 259 263 267 270 274 272 271 268 272 281 275 269 277 279 261 246 238 245 245 232 237 192 159 163 168 169 171
6 5 5 4 2 358 354 350 352 355 356 352 345 340 338 336 323 308 328 8 20 18 6 333 276 261 261 249 258 249 254 267 126 239 299 297 295 281 227 73 88 52 353 304 288 279 280 270 255 259 258 242 246 249 232 229 231 233 245 247 254 257 260 265 267 271 271 276 283 280 286 277 254 261 291 285 259 236 244 257 242 245 212 163 164 173 178 180
6 5 4 2 1 358 351 348 347 347 350 347 342 335 330 326 309 289 288 8 22 12 2 292 265 269 274 262 284 274 253 193 120 322 336 311 262 153 174 73 46 317 302 290 289 292 292 275 266 281 280 262 280 282 256 255 251 249 259 258 261 264 267 271 268 270 271 273 278 280 286 284 273 273 282 283 276 250 238 246 255 251 206 164 164 173 179 183
5 5 3 0 359 358 353 349 346 345 346 344 340 332 325 318 298 269 227 101 17 6 339 278 275 276 279 283 293 287 272 92 88 325 359 4 125 155 247 293 286 273 283 282 279 287 281 278 286 306 306 292 304 299 269 268 260 247 256 265 271 268 265 266 265 267 271 268 261 260 269 277 283 283 276 277 283 279 248 230 250 264 231 178 169 177 180 182
3 3 1 359 357 357 354 349 347 346 343 342 340 333 327 316 291 240 203 166 357 359 295 273 287 287 288 304 291 285 89 86 137 115 18 355 241 242 256 273 272 263 278 280 263 268 279 295 305 312 308 290 287 283 265 264 270 270 276 277 275 277 276 271 269 268 264 264 257 253 259 262 272 279 276 271 274 288 273 231 244 264 258 205 167 172 175 177
1 0 358 356 355 355 354 350 349 345 342 343 341 337 334 325 277 203 187 166 194 314 274 268 282 284 297 303 281 297 71 65 274 196 233 267 238 244 250 267 274 268 276 279 267 264 278 297 300 292 285 289 295 274 256 259 263 271 280 280 273 274 275 269 267 266 261 260 254 252 255 254 261 263 260 263 264 275 276 255 256 261 265 228 163 166 169 177
358 359 356 353 352 353 353 351 348 344 343 342 342 343 341 335 205 182 176 174 209 249 261 263 269 285 308 297 269 307 33 286 275 265 240 242 249 241 246 267 271 266 277 281 276 272 274 284 285 275 272 299 299 270 281 288 268 272 277 275 271 265 260 255 250 250 251 251 248 249 252 246 243 246 250 258 266 266 264 263 263 259 261 235 169 168 174 185
358 357 355 351 349 351 352 350 347 345 342 341 344 345 341 345 174 177 174 193 210 257 263 259 268 295 309 298 264 357 327 257 246 269 231 236 255 250 245 257 269 265 272 278 282 294 293 282 277 271 275 285 280 278 307 299 270 270 271 266 270 269 258 249 241 235 235 237 240 242 248 241 234 240 246 252 259 262 260 258 260 259 259 246 199 178 180 190
358 355 354 351 346 349 351 349 348 343 340 342 343 344 347 18 175 180 191 229 233 257 266 258 275 299 291 281 258 346 317 234 225 239 236 263 276 266 244 231 254 266 260 266 276 285 283 277 273 271 272 271 273 285 292 279 261 258 259 255 252 262 261 253 244 229 226 224 222 227 245 247 243 245 244 241 243 251 254 249 251 255 254 255 237 195 187 195
358 356 354 352 347 349 351 350 349 343 342 343 343 348 354 191 182 190 209 243 239 248 264 260 272 287 274 261 230 275 328 216 222 238 270 286 282 281 260 225 240 256 251 261 268 270 270 268 265 264 263 257 257 269 276 268 257 247 251 256 245 252 260 259 251 228 226 218 210 216 239 247 250 255 253 243 234 237 246 244 241 249 246 246 246 211 193 198
359 357 356 355 351 351 352 352 350 344 343 344 346 353 357 42 192 215 236 246 230 225 237 253 260 257 272 282 212 239 272 235 242 307 284 275 270 290 301 262 258 259 247 257 268 267 261 258 257 260 265 260 248 245 256 260 251 237 236 249 253 260 271 269 268 248 234 221 206 213 234 251 254 257 258 253 241 229 234 240 235 242 242 235 243 233 212 202
358 358 358 358 355 353 353 353 352 348 344 347 353 356 351 290 237 223 242 241 230 230 241 264 284 267 262 295 250 241 268 273 296 318 300 288 251 289 302 283 274 265 249 245 252 256 252 247 248 250 252 255 255 246 250 257 256 256 249 257 266 271 283 280 274 266 246 240 228 224 230 242 249 258 261 257 251 234 225 233 233 235 238 235 236 236 239 220
356 356 359 359 357 354 354 354 354 351 349 355 9 3 336 258 238 234 234 237 234 239 251 257 272 282 257 257 268 268 308 328 313 310 298 277 251 273 284 273 279 281 266 250 236 243 247 242 242 247 237 230 244 250 253 267 272 278 275 275 286 286 291 290 280 280 268 262 257 251 246 242 241 247 258 259 258 247 225 225 233 233 230 237 239 228 242 236
355 354 357 357 356 355 354 355 354 358 2 11 25 336 300 246 241 237 219 222 227 235 273 233 216 271 291 280 303 308 320 326 298 285 283 284 284 284 276 267 273 277 274 261 226 232 246 242 242 257 255 238 264 283 270 281 284 283 281 271 275 276 279 288 292 291 286 277 264 264 262 253 249 242 248 254 258 256 236 219 222 234 232 232 241 230 231 237
355 353 353 354 355 353 354 355 354 1 12 32 6 326 307 294 255 228 210 229 234 249 315 292 215 286 302 321 338 325 317 303 270 256 248 292 303 289 282 273 262 254 265 275 242 233 260 267 249 246 263 271 305 283 268 276 284 282 280 272 270 269 270 276 279 278 278 278 269 266 268 265 260 256 252 245 248 256 249 227 206 219 238 230 230 233 224 231
355 353 349 350 352 352 355 355 355 360 14 36 1 332 337 358 341 317 329 268 248 255 295 296 306 288 285 322 327 321 316 299 286 286 269 290 289 280 289 291 273 252 262 295 312 306 264 254 246 248 279 319 252 252 258 270 276 274 271 273 274 273 281 280 280 287 283 268 264 261 264 267 260 258 256 242 239 248 251 248 212 205 232 234 222 226 231 233
353 353 348 345 347 351 353 350 355 359 8 20 350 333 352 4 350 318 323 298 278 266 253 261 271 274 279 311 307 314 300 293 301 299 293 305 294 282 288 278 274 275 262 296 326 318 264 255 277 282 302 294 254 252 260 266 267 271 276 287 295 296 294 282 275 289 292 276 270 265 258 261 261 260 261 249 232 238 246 247 229 205 217 231 221 213 230 237
349 351 349 342 343 350 354 359 6 9 19 13 344 345 354 348 339 321 305 289 284 267 242 246 252 269 303 317 313 318 289 294 305 291 288 296 289 291 294 271 272 314 327 273 259 283 278 270 290 299 290 262 263 263 261 266 280 296 297 291 295 300 297 284 266 279 286 267 260 272 270 262 262 257 257 251 230 229 243 241 227 209 209 222 221 210 224 235
345 348 348 339 339 348 359 17 17 13 12 358 347 357 350 336 336 334 305 278 279 265 251 272 270 251 303 329 316 287 295 316 312 289 302 295 288 295 296 287 284 295 268 249 244 255 254 219 251 297 280 253 263 272 274 286 294 286 289 288 290 296 294 293 291 295 294 268 243 252 265 259 256 253 250 250 238 230 236 237 230 222 215 209 209 214 219 231
341 344 346 338 334 343 359 16 15 3 332 306 1 355 342 340 334 335 313 279 274 245 213 206 231 209 220 294 288 286 306 331 314 286 307 312 299 296 292 287 273 271 260 247 255 263 257 234 247 281 272 262 266 275 293 302 289 277 295 307 298 290 289 290 284 277 285 271 245 246 259 256 250 254 247 234 238 235 222 223 235 233 218 201 205 218 211 225
338 341 344 337 329 339 350 346 351 343 315 315 15 340 334 338 326 334 318 274 261 186 174 188 212 199 244 283 321 299 293 322 296 282 297 302 293 288 289 285 250 274 309 277 254 261 263 271 257 254 269 279 277 287 312 298 296 300 300 302 287 284 288 293 292 285 276 273 277 273 267 263 249 255 250 220 216 231 219 217 231 226 211 203 217 224 210 219
336 338 342 338 323 328 336 316 313 331 336 0 355 333 336 324 320 334 283 253 241 242 194 155 124 337 289 307 323 285 287 344 303 273 277 281 294 287 277 284 276 291 310 292 263 263 283 280 262 252 272 281 279 298 329 294 283 267 281 289 283 286 293 290 289 285 278 290 293 279 274 273 255 268 269 233 208 216 225 226 220 207 202 208 217 222 220 223
335 336 340 337 318 315 329 326 315 328 349 2 341 332 334 309 317 335 278 284 112 237 301 69 51 357 305 284 272 269 312 330 304 290 289 277 289 284 267 275 285 283 277 264 266 256 266 282 276 257 273 291 289 290 289 274 272 263 281 287 278 277 285 288 284 272 277 304 284 267 273 271 251 281 280 237 206 203 216 223 208 189 199 214 215 212 226 234
334 334 337 334 319 308 324 331 328 330 344 342 329 328 320 303 310 277 260 291 114 170 3 25 17 348 301 282 271 296 310 304 309 331 324 304 285 261 270 295 303 296 276 265 292 330 290 278 286 278 276 206 228 268 281 256 255 264 270 273 272 269 280 291 289 283 267 255 263 259 254 251 244 328 306 225 200 209 212 217 209 192 189 220 220 199 221 245
333 332 334 329 317 302 315 322 339 354 329 317 320 321 306 296 275 252 260 294 21 86 65 351 318 309 319 312 326 322 300 309 323 306 314 325 280 248 272 315 331 316 300 303 336 322 288 262 263 279 300 308 240 247 296 266 278 306 281 270 268 269 295 293 281 287 272 245 268 278 265 256 202 334 326 30 23 2 299 216 203 183 67 43 36 55 54 49
333 332 332 325 300 248 292 313 347 352 305 303 318 316 293 275 244 265 305 181 226 31 73 340 331 338 341 338 337 302 303 324 311 294 317 321 281 266 277 309 354 307 300 326 330 279 278 286 308 285 284 302 279 222 69 292 290 301 303 305 288 279 337 313 271 264 258 252 284 282 282 62 93 294 1 41 28 25 27 33 122 90 59 53 46 46 51 56
334 334 332 326 289 240 271 310 332 311 287 302 323 311 282 265 240 262 336 207 224 21 56 303 331 346 332 322 302 299 330 331 302 316 347 303 297 313 296 322 342 310 325 1 301 273 275 305 315 314 324 303 293 295 357 309 277 255 275 359 328 297 1 320 279 254 258 286 278 263 165 93 101 342 50 58 40 43 54 50 52 57 56 56 53 49 51 55
338 340 338 337 288 253 288 311 317 304 302 326 323 293 268 281 285 315 322 313 90 3 5 310 339 339 307 300 312 325 357 311 300 329 341 290 297 317 318 335 328 321 332 112 276 287 279 251 274 291 315 310 307 313 326 342 325 292 175 69 328 297 331 278 258 207 257 293 274 252 230 128 132 63 63 79 61 47 66 66 56 55 54 51 50 50 51 53
340 347 352 353 319 291 309 319 324 319 322 333 305 274 254 274 312 64 326 21 55 337 341 1 331 311 289 290 340 360 347 295 308 340 328 302 322 331 331 333 336 342 322 288 296 278 272 248 242 246 302 298 301 332 353 327 310 349 126 137 286 287 288 291 290 348 342 333 302 273 248 118 126 134 94 102 102 69 59 61 58 55 52 49 46 44 44 46
341 351 1 6 354 327 335 334 330 329 330 319 278 261 255 277 347 29 343 9 28 333 337 338 306 301 289 282 333 25 5 306 331 346 330 343 12 357 352 348 349 353 328 319 30 295 284 309 64 350 334 303 308 349 353 316 306 48 146 170 224 249 262 298 338 328 357 32 330 307 98 99 124 142 124 104 103 93 81 71 61 53 48 48 44 40 41 40
339 336 335 350 357 321 333 333 315 322 326 299 270 278 306 338 1 15 4 358 2 345 329 318 313 318 300 272 330 18 45 308 326 335 337 355 16 9 5 10 354 345 339 331 2 195 294 320 351 310 300 297 327 340 322 302 317 322 262 268 262 240 250 272 195 181 18 139 217 110 116 122 134 134 122 103 93 94 98 90 77 66 52 49 45 39 40 38
345 301 287 304 271 263 303 303 286 298 304 285 276 297 318 6 8 11 27 357 330 326 315 315 351 330 313 326 351 354 356 333 327 336 340 327 7 16 356 9 4 344 345 332 310 138 316 307 299 304 301 322 337 322 302 312 334 307 299 337 305 258 248 258 217 156 142 178 220 163 145 147 155 130 90 71 56 46 49 55 59 58 46 43 42 37 36 38
349 318 285 280 234 268 295 286 272 274 273 267 264 277 301 25 38 21 29 6 322 302 296 311 353 329 321 337 334 344 353 343 326 328 335 336 11 7 346 2 12 348 344 333 317 68 24 321 320 334 324 330 336 321 309 340 344 320 309 312 314 299 272 257 262 217 177 182 230 172 150 121 59 87 66 53 44 32 28 32 38 41 35 32 34 33 32 34
344 326 297 231 227 287 284 277 280 274 266 268 266 276 318 15 64 58 51 34 325 310 310 325 343 322 318 327 324 339 349 331 325 333 348 337 298 297 330 351 3 356 351 342 334 35 39 295 281 318 312 321 339 346 355 351 344 340 329 322 2 355 302 293 292 272 220 183 199 171 134 72 37 63 60 54 50 37 23 25 31 33 31 29 29 29 29 30
331 303 284 226 258 284 281 286 287 264 249 264 276 28 13 342 47 66 61 44 328 315 329 337 329 307 318 331 327 334 341 329 334 353 6 344 311 257 345 354 352 359 354 346 351 1 349 202 303 313 319 12 346 337 6 5 344 350 355 354 8 358 322 325 269 250 257 198 188 163 119 82 63 56 49 49 46 31 23 24 24 28 30 26 24 24 25 26
317 287 273 290 305 286 275 281 263 254 251 257 284 45 42 353 12 49 75 100 329 293 269 312 326 307 316 335 331 333 339 327 328 9 360 348 8 30 358 354 349 354 351 347 12 12 336 291 318 318 35 67 47 338 356 359 342 358 37 5 341 345 346 332 264 242 286 272 220 152 122 88 48 32 42 47 41 28 24 18 13 22 23 17 16 17 18 20
300 282 288 344 339 307 258 272 256 266 282 311 351 71 74 326 324 355 18 166 189 299 260 275 329 314 311 325 324 333 339 322 321 360 357 351 13 15 1 1 353 354 1 351 4 10 323 314 322 314 356 36 37 36 15 2 356 38 57 1 326 342 358 328 301 331 341 323 315 114 112 85 21 20 37 46 39 30 26 16 8 13 12 6 7 9 12 13
299 314 5 340 343 318 240 272 279 278 305 38 358 103 107 327 293 317 313 226 189 6 315 284 327 337 334 326 320 337 346 327 320 353 359 357 9 13 12 12 359 359 13 351 338 357 316 314 318 303 345 27 354 85 54 25 21 54 37 356 348 350 339 319 311 330 341 333 322 137 118 82 10 14 27 35 30 26 23 12 4 6 4 360 0 2 6 5
307 310 285 283 334 308 244 281 316 305 321 344 333 143 136 13 288 290 319 324 32 13 285 293 308 280 318 326 314 327 345 338 330 346 357 359 2 12 11 9 7 11 19 4 350 19 21 339 332 312 320 23 328 234 76 35 29 40 14 358 358 353 346 333 314 330 46 339 319 292 121 93 17 11 22 27 22 19 16 7 2 3 359 356 357 358 359 358
310 299 263 239 315 261 262 304 318 299 307 320 318 276 226 159 131 315 314 304 299 328 307 290 272 276 313 330 303 303 321 317 315 328 345 358 353 9 6 350 7 27 30 17 337 354 30 2 348 346 346 1 27 39 28 17 19 23 10 5 4 1 0 353 338 14 42 342 340 10 60 61 41 27 22 18 12 10 8 2 359 358 354 352 351 352 354 354
313 314 314 330 302 259 265 294 296 286 313 334 309 284 284 166 142 151 296 294 297 338 299 284 287 313 333 325 305 307 321 317 314 323 335 351 349 356 348 340 15 44 49 359 330 335 28 38 23 36 35 33 63 82 85 46 34 29 19 13 12 12 9 9 30 35 354 326 34 42 10 355 26 24 14 7 3 0 357 355 353 351 349 347 345 347 351 351
293 328 342 341 322 297 288 290 303 310 333 351 316 289 296 266 202 164 186 298 310 295 284 290 305 309 309 318 318 325 332 332 345 338 340 349 347 354 355 346 18 47 237 310 30 27 42 58 52 62 72 78 88 97 99 74 52 38 30 23 17 19 23 30 45 27 350 328 60 32 7 7 20 11 3 358 354 351 348 348 345 343 345 345 344 345 346 347
307 327 351 6 330 302 305 320 336 328 307 304 297 294 300 285 261 222 213 282 293 283 267 268 271 276 302 320 317 323 338 339 349 350 350 352 345 351 16 357 358 16 225 9 43 65 77 53 68 84 89 94 99 102 91 71 61 46 38 34 27 24 32 39 40 31 22 27 30 14 17 34 20 1 356 351 346 342 339 340 339 339 343 345 345 344 344 344
338 339 4 5 318 290 300 319 324 312 299 300 273 263 285 285 277 287 298 285 279 278 269 267 276 300 314 306 301 320 341 339 335 344 348 348 341 346 12 15 345 6 41 25 42 123 142 42 83 105 108 121 125 122 113 81 64 51 40 37 35 34 39 46 43 36 40 39 16 4 21 48 26 359 347 339 338 334 331 336 340 341 343 345 345 343 342 343
345 345 341 330 314 300 300 303 306 303 298 297 281 274 285 290 295 328 314 276 276 290 294 289 305 331 307 299 303 314 337 335 325 329 334 333 342 351 359 351 344 1 19 18 22 41 355 3 134 118 134 162 162 168 168 102 42 39 42 40 37 35 37 42 39 33 38 31 14 10 17 24 10 355 340 334 337 337 335 340 343 343 343 343 342 341 341 342
320 325 315 309 312 313 302 292 290 295 281 246 285 301 295 289 322 14 305 258 257 271 305 306 316 322 294 286 295 303 329 329 315 313 312 312 333 351 349 348 350 356 11 16 2 12 36 132 168 177 224 213 190 197 200 214 321 2 36 37 33 33 30 25 24 37 52 28 6 16 19 1 352 347 340 339 342 342 340 340 341 343 343 341 342 341 340 341
316 311 300 291 292 302 304 294 277 280 308 307 280 281 285 285 329 1 299 264 259 278 324 277 299 302 281 283 295 309 322 316 303 301 289 282 304 320 319 354 7 356 4 15 348 356 88 156 211 211 249 258 204 203 206 218 271 341 39 33 28 28 20 19 26 48 68 52 345 7 18 358 347 344 342 342 341 341 340 337 337 340 341 343 345 341 338 338
Height
1520 1519 1517 1516 1514 1513 1512 1511 1510 1508 1507 1506 1505 1505 1504 1503 1502 1501 1500 1499 1498 1497 1497 1496 1496 1496 1495 1495 1495 1494 1494 1493 1492 1493 1494 1494 1493 1493 1492 1492 1492 1491 1490 1489 1489 1490 1491 1491 1491 1491 1491 1491 1490 1489 1488 1487 1486 1485 1484 1485 1482 1475 1472 1468 1466 1462 1459 1456 1453 1451 1449 1448 1448 1447 1448 1450 1451 1452 1454 1456 1458 1460 1465 1470 1473 1478 1483 1487
1521 1519 1517 1516 1514 1513 1512 1511 1510 1509 1508 1506 1505 1505 1504 1503 1502 1501 1501 1499 1499 1498 1497 1497 1496 1496 1496 1495 1495 1494 1494 1493 1493 1493 1494 1493 1493 1493 1492 1492 1491 1490 1490 1489 1489 1490 1490 1489 1489 1489 1490 1489 1487 1487 1487 1485 1484 1481 1480 1482 1478 1472 1469 1465 1464 1460 1457 1457 1453 1450 1448 1448 1447 1447 1448 1451 1451 1452 1453 1454 1456 1460 1465 1469 1473 1478 1482 1485
1521 1519 1517 1516 1515 1513 1512 1511 1510 1509 1508 1507 1506 1505 1504 1503 1503 1502 1501 1500 1499 1498 1498 1497 1497 1496 1496 1496 1495 1494 1494 1493 1493 1493 1493 1492 1493 1493 1492 1491 1491 1490 1490 1489 1489 1490 1490 1489 1488 1488 1488 1486 1484 1484 1484 1483 1481 1478 1479 1478 1472 1469 1468 1465 1464 1461 1458 1457 1455 1453 1451 1449 1448 1448 1450 1451 1451 1451 1452 1453 1454 1459 1465 1469 1473 1478 1481 1484
1521 1519 1517 1516 1515 1513 1512 1511 1510 1509 1508 1507 1506 1505 1504 1503 1503 1502 1501 1500 1500 1499 1498 1498 1497 1497 1496 1496 1495 1495 1494 1493 1492 1492 1492 1492 1492 1492 1492 1491 1490 1490 1489 1489 1490 1491 1490 1489 1489 1488 1487 1484 1481 1480 1480 1480 1479 1476 1477 1475 1470 1468 1468 1467 1466 1462 1460 1460 1459 1457 1454 1453 1451 1451 1450 1450 1453 1452 1451 1451 1453 1458 1464 1468 1471 1475 1479 1482
1521 1519 1517 1516 1515 1513 1512 1511 1510 1509 1508 1507 1507 1506 1505 1504 1503 1502 1501 1501 1500 1499 1499 1498 1497 1497 1496 1496 1496 1495 1495 1494 1492 1492 1492 1492 1492 1492 1492 1491 1490 1490 1489 1489 1490 1491 1490 1489 1488 1487 1486 1482 1479 1477 1476 1477 1477 1474 1473 1472 1471 1470 1469 1467 1465 1462 1461 1461 1460 1459 1457 1456 1454 1452 1448 1449 1454 1453 1450 1452 1453 1457 1462 1466 1468 1471 1475 1479
1521 1519 1518 1516 1515 1513 1512 1511 1510 1509 1508 1507 1507 1506 1505 1504 1503 1502 1502 1501 1500 1500 1499 1498 1498 1497 1496 1496 1496 1495 1496 1494 1492 1493 1492 1492 1492 1492 1492 1491 1490 1490 1489 1490 1490 1490 1489 1488 1486 1485 1483 1480 1477 1474 1473 1474 1475 1474 1472 1471 1471 1471 1469 1468 1466 1464 1462 1461 1460 1461 1460 1458 1457 1453 1449 1450 1451 1451 1452 1453 1454 1456 1460 1463 1465 1468 1471 1475
1521 1519 1518 1516 1515 1514 1512 1511 1510 1509 1508 1507 1507 1506 1505 1504 1503 1502 1502 1501 1501 1500 1500 1499 1498 1497 1496 1496 1496 1495 1495 1493 1492 1492 1492 1491 1491 1491 1492 1491 1491 1490 1490 1491 1490 1489 1488 1486 1484 1482 1480 1477 1475 1472 1470 1470 1470 1471 1472 1470 1470 1469 1468 1468 1467 1466 1464 1463 1462 1462 1462 1459 1456 1455 1455 1453 1450 1451 1454 1454 1454 1456 1459 1462 1463 1466 1468 1471
1521 1520 1518 1516 1515 1514 1512 1511 1510 1509 1508 1507 1506 1505 1504 1503 1502 1502 1502 1501 1501 1501 1500 1499 1498 1498 1497 1496 1497 1495 1493 1493 1492 1491 1491 1491 1491 1491 1491 1491 1491 1491 1491 1491 1490 1489 1488 1486 1484 1482 1479 1475 1473 1472 1470 1470 1470 1471 1471 1469 1468 1468 1468 1469 1468 1467 1465 1464 1465 1465 1464 1461 1458 1458 1458 1454 1452 1453 1454 1454 1455 1455 1458 1462 1464 1467 1468 1469
1522 1520 1518 1517 1515 1514 1512 1511 1510 1509 1508 1507 1506 1505 1504 1502 1502 1501 1501 1501 1501 1501 1500 1499 1498 1498 1498 1497 1498 1495 1492 1493 1492 1491 1491 1491 1491 1492 1492 1492 1492 1492 1492 1491 1490 1490 1488 1486 1484 1482 1481 1478 1475 1474 1472 1474 1474 1471 1471 1470 1468 1468 1468 1468 1467 1467 1467 1466 1466 1466 1465 1464 1463 1462 1459 1455 1454 1454 1451 1452 1455 1455 1457 1460 1462 1466 1470 1471
1522 1520 1519 1517 1515 1513 1512 1511 1510 1509 1508 1506 1505 1504 1503 1501 1501 1501 1501 1501 1501 1501 1501 1500 1499 1498 1498 1498 1498 1495 1493 1494 1494 1492 1492 1492 1492 1492 1493 1493 1492 1492 1492 1491 1490 1490 1488 1487 1485 1485 1484 1481 1478 1477 1474 1475 1474 1470 1470 1470 1469 1469 1468 1468 1467 1467 1467 1466 1466 1466 1467 1467 1467 1467 1461 1456 1457 1455 1450 1450 1456 1457 1455 1456 1459 1463 1468 1472
1522 1520 1519 1517 1515 1513 1512 1511 1509 1508 1507 1506 1505 1503 1502 1501 1500 1501 1501 1501 1501 1501 1501 1500 1499 1498 1498 1498 1497 1494 1492 1494 1494 1493 1493 1493 1493 1493 1493 1493 1493 1493 1492 1490 1490 1489 1489 1488 1487 1487 1485 1481 1479 1477 1475 1474 1473 1471 1471 1471 1470 1470 1469 1468 1468 1468 1468 1467 1467 1467 1468 1468 1470 1468 1459 1455 1458 1458 1455 1454 1458 1458 1455 1455 1458 1463 1466 1471
1522 1520 1518 1517 1515 1513 1512 1510 1509 1508 1507 1506 1504 1503 1502 1501 1500 1501 1501 1501 1502 1501 1501 1500 1499 1499 1498 1497 1496 1493 1493 1494 1494 1493 1493 1493 1493 1493 1493 1493 1492 1492 1491 1490 1489 1488 1489 1488 1488 1487 1484 1482 1480 1476 1474 1474 1473 1472 1472 1472 1470 1469 1468 1467 1466 1467 1467 1467 1467 1469 1470 1470 1469 1464 1458 1458 1460 1460 1459 1459 1460 1458 1456 1456 1458 1463 1466 1470
1522 1520 1518 1516 1515 1513 1512 1510 1509 1508 1507 1505 1504 1502 1502 1501 1501 1501 1501 1501 1502 1502 1501 1500 1499 1499 1499 1496 1494 1493 1493 1493 1493 1493 1493 1492 1492 1492 1492 1492 1492 1492 1491 1490 1489 1488 1488 1488 1488 1486 1484 1482 1479 1476 1474 1473 1473 1472 1471 1472 1471 1469 1466 1462 1461 1463 1464 1465 1466 1470 1474 1469 1463 1459 1460 1464 1463 1461 1461 1460 1460 1458 1456 1456 1457 1461 1464 1467
1522 1520 1518 1516 1514 1513 1512 1510 1509 1508 1506 1505 1504 1503 1502 1501 1501 1501 1502 1502 1502 1502 1501 1500 1500 1500 1499 1496 1493 1493 1492 1492 1492 1491 1492 1492 1491 1491 1490 1490 1491 1491 1491 1490 1489 1489 1488 1488 1488 1486 1484 1483 1480 1478 1475 1472 1472 1470 1470 1469 1469 1472 1465 1456 1454 1456 1458 1461 1462 1468 1473 1466 1458 1457 1459 1463 1463 1462 1460 1459 1461 1459 1456 1455 1454 1458 1462 1462
1522 1520 1518 1516 1514 1513 1511 1510 1509 1507 1506 1505 1504 1503 1502 1502 1502 1502 1502 1502 1502 1501 1500 1500 1500 1500 1498 1494 1492 1493 1491 1490 1491 1491 1492 1492 1491 1489 1488 1489 1489 1489 1489 1489 1489 1488 1488 1487 1487 1485 1482 1481 1479 1478 1476 1473 1469 1467 1472 1472 1466 1466 1461 1451 1449 1449 1452 1455 1457 1464 1468 1463 1457 1456 1456 1458 1459 1460 1459 1458 1460 1458 1456 1455 1453 1455 1458 1457
1522 1520 1518 1516 1514 1513 1511 1510 1508 1507 1506 1505 1504 1503 1502 1502 1502 1502 1502 1501 1501 1501 1500 1500 1499 1499 1497 1492 1491 1492 1491 1490 1490 1490 1490 1490 1490 1489 1488 1488 1488 1488 1488 1488 1488 1487 1487 1486 1485 1483 1481 1479 1476 1475 1475 1474 1469 1463 1467 1470 1464 1462 1459 1453 1448 1444 1445 1449 1452 1458 1462 1461 1457 1455 1455 1454 1453 1455 1456 1455 1456 1455 1454 1454 1453 1453 1455 1454
1522 1520 1518 1516 1514 1513 1511 1510 1508 1507 1506 1505 1504 1503 1502 1502 1502 1502 1501 1501 1501 1500 1500 1499 1498 1499 1495 1490 1490 1490 1489 1489 1489 1490 1489 1488 1489 1489 1489 1488 1487 1487 1486 1486 1487 1486 1485 1484 1483 1481 1479 1477 1473 1472 1477 1478 1473 1465 1463 1464 1462 1459 1457 1455 1449 1442 1441 1445 1448 1450 1454 1457 1455 1453 1453 1452 1450 1449 1450 1451 1452 1452 1451 1451 1451 1451 1451 1451
1522 1520 1518 1516 1514 1513 1511 1510 1508 1507 1506 1505 1504 1503 1502 1502 1502 1501 1500 1500 1500 1501 1500 1498 1498 1499 1495 1489 1489 1488 1488 1488 1489 1489 1489 1487 1487 1488 1489 1488 1487 1485 1484 1483 1484 1483 1483 1481 1479 1477 1475 1475 1472 1472 1478 1478 1473 1470 1468 1467 1465 1460 1456 1454 1449 1442 1443 1446 1448 1448 1449 1449 1449 1450 1451 1450 1448 1445 1444 1447 1449 1448 1449 1449 1448 1448 1449 1449
1522 1520 1518 1516 1514 1513 1511 1510 1509 1508 1507 1505 1505 1504 1502 1502 1501 1500 1500 1500 1500 1499 1497 1495 1496 1497 1492 1487 1487 1488 1488 1488 1489 1489 1488 1486 1486 1487 1487 1487 1486 1485 1484 1482 1481 1481 1481 1479 1478 1479 1476 1472 1471 1473 1475 1472 1468 1469 1468 1468 1468 1465 1459 1455 1451 1446 1445 1448 1448 1448 1448 1445 1445 1447 1448 1448 1447 1442 1440 1442 1445 1446 1446 1446 1446 1447 1448 1449
1522 1520 1518 1516 1515 1513 1511 1510 1509 1508 1507 1506 1505 1504 1502 1501 1500 1498 1499 1500 1497 1495 1493 1491 1492 1492 1489 1487 1488 1488 1488 1488 1487 1486 1487 1487 1487 1486 1485 1485 1485 1484 1483 1481 1480 1480 1481 1481 1481 1483 1479 1471 1471 1475 1471 1466 1466 1466 1465 1465 1464 1464 1461 1456 1453 1448 1446 1451 1450 1446 1446 1445 1444 1445 1444 1444 1444 1441 1437 1435 1438 1443 1444 1444 1445 1446 1446 1448
1522 1520 1518 1516 1515 1513 1512 1510 1509 1508 1508 1507 1506 1504 1502 1501 1500 1499 1500 1497 1493 1493 1493 1492 1493 1492 1489 1489 1489 1489 1489 1487 1485 1484 1485 1486 1487 1486 1484 1484 1484 1483 1484 1483 1481 1482 1483 1483 1480 1477 1475 1473 1474 1473 1468 1466 1466 1465 1464 1464 1461 1461 1461 1455 1453 1450 1446 1451 1452 1446 1447 1447 1445 1444 1441 1438 1440 1439 1436 1432 1432 1438 1442 1442 1443 1445 1446 1447
1522 1520 1518 1516 1515 1513 1512 1510 1509 1509 1508 1507 1506 1505 1504 1504 1503 1503 1501 1497 1491 1491 1493 1492 1492 1490 1488 1489 1489 1489 1489 1486 1484 1484 1485 1486 1486 1485 1483 1485 1486 1483 1482 1485 1488 1490 1488 1481 1475 1472 1470 1473 1474 1468 1466 1465 1464 1464 1463 1464 1465 1463 1461 1457 1454 1452 1450 1452 1452 1448 1449 1448 1443 1442 1439 1434 1434 1437 1436 1433 1431 1434 1439 1440 1440 1443 1445 1446
1522 1519 1518 1516 1514 1513 1511 1510 1510 1509 1508 1507 1506 1506 1506 1505 1504 1503 1502 1499 1492 1489 1489 1489 1489 1489 1488 1489 1488 1488 1488 1484 1483 1483 1485 1486 1485 1484 1483 1483 1484 1483 1484 1487 1491 1497 1497 1488 1479 1474 1471 1472 1471 1466 1464 1464 1465 1468 1467 1468 1469 1464 1465 1464 1456 1453 1453 1452 1453 1452 1451 1448 1443 1441 1438 1432 1431 1433 1433 1430 1429 1431 1435 1437 1439 1442 1444 1445
1521 1519 1517 1515 1514 1513 1511 1511 1509 1508 1508 1507 1507 1508 1506 1505 1504 1503 1502 1498 1492 1488 1487 1487 1488 1489 1489 1489 1489 1488 1486 1484 1483 1482 1483 1485 1484 1483 1483 1480 1481 1483 1486 1486 1486 1489 1493 1488 1480 1476 1473 1472 1470 1466 1465 1468 1472 1472 1469 1469 1469 1465 1464 1462 1457 1455 1455 1452 1451 1453 1457 1451 1442 1440 1437 1430 1429 1430 1429 1427 1427 1429 1432 1434 1437 1441 1443 1444
1520 1519 1517 1514 1513 1512 1511 1511 1509 1509 1508 1507 1507 1507 1506 1506 1503 1503 1502 1498 1492 1487 1486 1488 1488 1488 1489 1488 1488 1487 1485 1484 1484 1483 1483 1484 1484 1483 1482 1480 1480 1481 1481 1482 1483 1482 1481 1479 1475 1475 1474 1471 1469 1468 1468 1472 1474 1473 1470 1467 1469 1468 1462 1457 1456 1457 1462 1461 1451 1452 1464 1457 1442 1439 1436 1431 1430 1428 1426 1428 1429 1428 1428 1431 1436 1438 1441 1443
1519 1518 1516 1514 1513 1512 1511 1510 1509 1509 1508 1507 1508 1506 1507 1506 1503 1503 1502 1499 1495 1486 1484 1487 1486 1487 1488 1487 1486 1487 1486 1484 1484 1484 1483 1484 1484 1483 1482 1479 1477 1479 1478 1478 1481 1477 1472 1472 1472 1473 1472 1469 1469 1470 1471 1472 1476 1478 1473 1468 1468 1466 1461 1458 1456 1457 1466 1466 1454 1451 1462 1460 1446 1439 1432 1428 1430 1427 1425 1428 1428 1427 1427 1432 1436 1437 1439 1442
1519 1517 1515 1514 1512 1511 1511 1510 1510 1509 1507 1508 1507 1506 1507 1505 1504 1504 1502 1505 1501 1487 1481 1485 1485 1486 1487 1487 1486 1487 1486 1483 1482 1482 1482 1483 1484 1483 1483 1479 1477 1479 1477 1479 1482 1477 1471 1471 1471 1471 1471 1469 1470 1472 1472 1473 1477 1479 1472 1467 1468 1465 1464 1463 1458 1458 1461 1459 1457 1453 1456 1460 1453 1442 1430 1425 1428 1429 1428 1428 1426 1426 1429 1433 1435 1436 1439 1441
1518 1516 1514 1513 1511 1511 1510 1510 1509 1509 1508 1508 1507 1507 1507 1505 1505 1503 1505 1511 1502 1486 1483 1484 1485 1487 1487 1486 1485 1484 1483 1481 1481 1480 1480 1482 1482 1482 1481 1477 1478 1480 1479 1481 1482 1476 1472 1471 1470 1469 1471 1474 1474 1473 1471 1472 1474 1473 1468 1468 1467 1463 1465 1464 1459 1457 1455 1462 1468 1458 1456 1464 1457 1442 1431 1424 1425 1430 1430 1427 1424 1425 1430 1433 1434 1437 1440 1442
1517 1515 1513 1512 1511 1510 1510 1509 1509 1508 1509 1508 1507 1508 1506 1505 1505 1502 1508 1510 1493 1482 1487 1486 1486 1487 1485 1483 1481 1481 1482 1480 1480 1480 1479 1481 1481 1481 1480 1476 1476 1477 1475 1475 1475 1472 1470 1469 1469 1467 1469 1475 1476 1471 1468 1470 1472 1469 1468 1469 1464 1461 1462 1464 1463 1458 1455 1467 1471 1458 1455 1463 1462 1452 1440 1432 1432 1433 1430 1425 1423 1425 1431 1434 1434 1437 1442 1445
1516 1514 1512 1511 1510 1510 1509 1509 1509 1508 1509 1508 1507 1507 1505 1505 1505 1505 1510 1505 1487 1484 1488 1486 1484 1484 1483 1482 1482 1483 1481 1479 1480 1480 1479 1480 1481 1480 1479 1477 1477 1477 1475 1473 1476 1478 1472 1467 1468 1467 1467 1469 1468 1467 1468 1468 1468 1468 1471 1471 1464 1460 1461 1463 1463 1460 1463 1470 1465 1456 1450 1454 1469 1469 1450 1443 1442 1436 1431 1428 1427 1431 1436 1439 1438 1440 1445 1449
1515 1513 1511 1510 1510 1509 1509 1509 1509 1509 1509 1507 1506 1505 1506 1505 1503 1506 1504 1492 1485 1487 1487 1487 1485 1482 1484 1485 1486 1485 1481 1480 1480 1479 1479 1479 1480 1480 1479 1479 1479 1481 1483 1482 1480 1478 1472 1470 1471 1467 1466 1466 1464 1465 1468 1466 1466 1467 1472 1474 1470 1468 1469 1470 1466 1464 1472 1474 1463 1455 1449 1454 1477 1473 1450 1447 1446 1438 1437 1436 1436 1440 1442 1443 1445 1447 1449 1452
1514 1512 1510 1509 1509 1509 1509 1509 1509 1509 1508 1506 1506 1505 1506 1505 1502 1502 1493 1481 1487 1491 1488 1490 1488 1485 1487 1487 1486 1484 1481 1483 1480 1476 1479 1480 1480 1480 1479 1480 1480 1484 1492 1494 1489 1480 1473 1474 1474 1469 1466 1465 1464 1466 1466 1465 1464 1465 1468 1477 1482 1482 1486 1490 1482 1475 1478 1473 1460 1453 1453 1462 1476 1468 1453 1453 1449 1443 1445 1445 1445 1446 1446 1448 1451 1452 1454 1456
1513 1511 1509 1508 1508 1508 1509 1508 1508 1508 1506 1506 1507 1503 1505 1508 1500 1492 1483 1481 1492 1493 1487 1490 1489 1488 1490 1487 1486 1484 1482 1485 1481 1477 1480 1479 1480 1480 1477 1478 1478 1482 1490 1496 1495 1487 1480 1478 1473 1471 1472 1470 1466 1466 1469 1467 1465 1465 1470 1483 1491 1490 1498 1503 1490 1482 1483 1474 1457 1448 1453 1465 1472 1465 1456 1456 1455 1451 1450 1451 1452 1451 1452 1455 1455 1457 1458 1459
1512 1510 1509 1508 1508 1508 1508 1508 1507 1507 1506 1506 1506 1504 1508 1509 1495 1485 1483 1483 1490 1490 1487 1490 1490 1490 1490 1487 1486 1485 1486 1487 1481 1480 1481 1479 1482 1483 1481 1479 1477 1479 1482 1487 1493 1489 1487 1484 1475 1472 1475 1473 1466 1464 1468 1467 1464 1466 1468 1479 1488 1487 1492 1495 1483 1478 1480 1474 1461 1452 1457 1469 1474 1467 1457 1456 1458 1457 1456 1456 1457 1457 1458 1460 1461 1462 1463 1462
1511 1510 1509 1508 1508 1508 1507 1508 1507 1506 1507 1506 1505 1505 1508 1503 1489 1486 1490 1487 1488 1491 1489 1489 1489 1491 1491 1487 1486 1486 1489 1489 1482 1481 1483 1482 1484 1485 1483 1482 1479 1480 1481 1485 1492 1490 1486 1481 1472 1471 1473 1471 1467 1464 1465 1467 1467 1466 1465 1474 1485 1484 1481 1480 1474 1471 1473 1477 1472 1462 1461 1466 1465 1460 1454 1454 1457 1458 1462 1462 1461 1463 1464 1464 1467 1467 1467 1468
1511 1510 1509 1508 1508 1508 1507 1508 1507 1506 1507 1505 1505 1504 1500 1494 1487 1489 1494 1492 1493 1495 1493 1492 1491 1493 1493 1488 1487 1487 1488 1488 1485 1484 1485 1484 1485 1485 1483 1483 1481 1481 1482 1485 1489 1491 1491 1484 1475 1474 1472 1468 1469 1467 1466 1469 1470 1468 1467 1471 1474 1471 1471 1474 1472 1467 1470 1481 1478 1465 1464 1465 1464 1463 1456 1455 1458 1458 1462 1464 1464 1468 1468 1469 1472 1472 1472 1473
1510 1509 1509 1508 1509 1509 1508 1507 1507 1507 1507 1506 1507 1503 1492 1488 1489 1491 1494 1495 1496 1496 1498 1499 1496 1496 1496 1492 1490 1490 1488 1488 1487 1487 1488 1486 1487 1487 1484 1484 1483 1481 1481 1482 1484 1488 1493 1489 1478 1474 1474 1470 1470 1470 1467 1466 1468 1470 1471 1470 1465 1461 1460 1464 1471 1473 1476 1483 1476 1464 1467 1470 1471 1473 1464 1460 1465 1465 1465 1467 1468 1471 1472 1473 1475 1475 1476 1477
1510 1509 1509 1509 1509 1509 1508 1507 1507 1508 1507 1506 1507 1501 1490 1488 1492 1492 1495 1497 1497 1496 1499 1501 1498 1495 1497 1497 1495 1491 1490 1493 1491 1489 1491 1490 1490 1489 1486 1485 1484 1482 1480 1480 1483 1486 1490 1491 1483 1477 1477 1475 1471 1471 1472 1469 1467 1468 1469 1465 1467 1473 1469 1463 1470 1474 1476 1485 1479 1464 1466 1475 1479 1479 1473 1471 1473 1472 1471 1472 1473 1474 1475 1476 1478 1478 1479 1479
1510 1509 1509 1508 1509 1508 1507 1507 1507 1507 1507 1506 1504 1499 1492 1490 1491 1493 1497 1499 1499 1498 1499 1500 1499 1496 1495 1498 1497 1493 1492 1494 1491 1490 1494 1496 1493 1490 1488 1486 1485 1484 1483 1481 1484 1487 1489 1494 1492 1482 1478 1480 1479 1479 1483 1480 1472 1468 1468 1465 1468 1478 1476 1470 1471 1467 1466 1478 1478 1468 1474 1487 1487 1481 1477 1476 1476 1477 1477 1476 1476 1477 1478 1479 1480 1480 1481 1480
1511 1510 1508 1507 1508 1507 1506 1506 1506 1506 1506 1503 1498 1495 1494 1491 1491 1495 1498 1500 1500 1500 1500 1500 1501 1499 1497 1497 1497 1495 1493 1493 1493 1495 1498 1498 1496 1492 1488 1486 1485 1486 1485 1484 1487 1489 1488 1492 1493 1483 1478 1485 1491 1487 1486 1485 1481 1477 1478 1479 1480 1479 1476 1474 1470 1460 1458 1466 1470 1473 1486 1494 1489 1483 1480 1480 1482 1482 1480 1479 1479 1479 1480 1481 1481 1481 1482 1481
1511 1509 1507 1507 1507 1506 1506 1506 1505 1503 1500 1497 1493 1493 1496 1495 1494 1496 1498 1500 1500 1500 1500 1501 1502 1502 1500 1500 1499 1497 1495 1493 1494 1497 1496 1495 1496 1495 1490 1488 1487 1487 1487 1487 1490 1493 1492 1493 1493 1486 1482 1488 1493 1487 1483 1483 1483 1483 1486 1489 1488 1484 1485 1489 1480 1460 1454 1460 1460 1470 1490 1497 1491 1487 1483 1483 1486 1484 1482 1482 1481 1481 1482 1483 1483 1482 1482 1481
1510 1507 1505 1506 1505 1505 1506 1504 1502 1498 1495 1495 1494 1496 1498 1498 1497 1497 1497 1498 1499 1498 1498 1500 1502 1502 1501 1502 1500 1499 1499 1496 1493 1494 1494 1492 1493 1493 1491 1490 1488 1487 1490 1493 1493 1494 1494 1495 1495 1491 1486 1488 1488 1485 1485 1485 1481 1483 1488 1489 1487 1484 1488 1497 1493 1476 1468 1466 1457 1463 1487 1497 1491 1486 1483 1484 1486 1485 1485 1486 1484 1483 1485 1484 1483 1483 1482 1482
1508 1506 1505 1505 1504 1505 1505 1503 1500 1496 1493 1494 1496 1496 1498 1499 1498 1497 1497 1496 1497 1499 1500 1499 1500 1501 1502 1501 1500 1499 1500 1498 1494 1493 1493 1492 1491 1491 1490 1491 1490 1488 1491 1495 1494 1493 1495 1498 1499 1494 1489 1491 1490 1485 1486 1487 1485 1486 1489 1487 1485 1485 1485 1486 1487 1483 1482 1482 1471 1469 1489 1500 1494 1488 1486 1486 1487 1486 1488 1488 1486 1486 1486 1484 1484 1483 1482 1483
1508 1506 1505 1505 1504 1504 1504 1503 1502 1500 1496 1495 1495 1496 1498 1499 1499 1498 1497 1497 1497 1500 1501 1500 1499 1500 1501 1501 1500 1500 1500 1501 1497 1492 1492 1494 1493 1492 1491 1490 1489 1489 1491 1494 1493 1493 1498 1500 1499 1496 1495 1497 1496 1492 1491 1492 1492 1494 1494 1490 1487 1485 1483 1480 1479 1479 1486 1493 1485 1478 1491 1502 1497 1491 1488 1487 1489 1490 1490 1490 1488 1487 1486 1485 1484 1483 1483 1483
1508 1505 1503 1503 1504 1504 1503 1501 1502 1502 1499 1497 1497 1496 1496 1497 1499 1500 1499 1498 1497 1499 1500 1500 1499 1498 1498 1500 1500 1499 1499 1501 1501 1495 1493 1494 1493 1491 1492 1490 1488 1489 1491 1493 1492 1492 1497 1499 1499 1500 1501 1501 1501 1503 1504 1502 1500 1499 1497 1493 1489 1486 1485 1483 1483 1486 1492 1497 1494 1491 1497 1499 1494 1491 1491 1491 1493 1493 1492 1491 1490 1488 1487 1486 1485 1484 1483 1483
1508 1507 1504 1503 1502 1502 1502 1501 1501 1500 1499 1500 1500 1496 1494 1497 1499 1500 1500 1498 1497 1499 1500 1498 1497 1498 1499 1500 1500 1499 1497 1498 1499 1497 1494 1495 1494 1492 1491 1490 1488 1490 1492 1492 1491 1491 1495 1498 1499 1501 1503 1503 1505 1508 1508 1506 1505 1503 1501 1497 1493 1490 1489 1486 1488 1494 1497 1496 1498 1501 1499 1496 1494 1494 1495 1496 1496 1495 1493 1492 1490 1488 1487 1486 1484 1483 1483 1483
1510 1508 1506 1506 1504 1501 1500 1500 1500 1500 1500 1502 1502 1496 1494 1496 1497 1499 1501 1499 1498 1499 1500 1499 1498 1500 1502 1502 1501 1501 1498 1496 1497 1498 1496 1496 1494 1491 1491 1491 1490 1491 1491 1490 1490 1492 1497 1501 1500 1500 1502 1503 1504 1505 1504 1503 1504 1504 1503 1501 1498 1495 1493 1493 1496 1499 1497 1496 1501 1501 1497 1497 1500 1499 1500 1500 1498 1497 1494 1492 1491 1489 1487 1486 1484 1483 1482 1482
1509 1507 1506 1508 1508 1505 1502 1500 1500 1501 1501 1501 1501 1497 1496 1496 1496 1499 1500 1499 1498 1498 1499 1500 1499 1499 1501 1502 1503 1503 1501 1499 1498 1498 1497 1497 1495 1492 1492 1491 1489 1489 1489 1489 1491 1493 1498 1502 1501 1501 1504 1504 1504 1504 1502 1502 1502 1502 1502 1502 1501 1499 1498 1499 1501 1500 1499 1501 1504 1501 1499 1503 1505 1504 1504 1503 1500 1498 1496 1493 1492 1489 1487 1486 1485 1484 1483 1481
1510 1508 1507 1509 1508 1505 1503 1502 1501 1502 1501 1500 1499 1498 1497 1496 1496 1497 1498 1500 1500 1497 1497 1499 1498 1498 1500 1501 1502 1503 1503 1503 1503 1501 1499 1498 1497 1494 1494 1493 1489 1487 1487 1489 1491 1493 1497 1501 1501 1501 1505 1506 1504 1504 1502 1501 1502 1502 1501 1501 1501 1501 1500 1501 1502 1500 1500 1503 1504 1501 1502 1505 1506 1505 1504 1502 1500 1498 1495 1493 1491 1489 1488 1487 1486 1485 1483 1482
1513 1512 1510 1510 1507 1505 1504 1503 1502 1502 1500 1500 1500 1497 1496 1496 1496 1498 1499 1501 1501 1498 1497 1499 1498 1499 1501 1501 1501 1503 1503 1503 1503 1502 1499 1499 1497 1494 1495 1494 1490 1487 1488 1491 1491 1491 1495 1501 1501 1502 1506 1507 1505 1504 1503 1502 1503 1503 1502 1501 1502 1503 1502 1501 1502 1502 1503 1505 1505 1503 1504 1505 1503 1503 1502 1500 1499 1496 1494 1492 1491 1489 1489 1487 1486 1485 1484 1482
1514 1514 1513 1512 1509 1506 1505 1503 1502 1502 1500 1500 1500 1497 1496 1496 1497 1499 1500 1499 1498 1497 1497 1500 1501 1501 1501 1502 1502 1502 1501 1501 1501 1500 1498 1498 1496 1494 1494 1493 1491 1490 1491 1491 1492 1491 1494 1501 1502 1502 1507 1506 1502 1503 1503 1503 1505 1505 1503 1502 1503 1504 1504 1503 1502 1503 1506 1509 1508 1505 1506 1506 1503 1501 1500 1499 1497 1495 1494 1492 1491 1490 1489 1488 1487 1485 1484 1483
1513 1513 1513 1513 1510 1505 1504 1502 1500 1500 1501 1500 1500 1498 1497 1496 1496 1499 1501 1497 1494 1495 1497 1500 1503 1503 1502 1502 1503 1502 1501 1500 1500 1499 1498 1496 1494 1493 1493 1491 1490 1492 1491 1492 1492 1490 1492 1499 1499 1500 1505 1503 1498 1500 1503 1505 1508 1507 1503 1502 1503 1503 1503 1503 1502 1503 1505 1509 1508 1506 1505 1504 1502 1500 1499 1498 1497 1496 1494 1493 1491 1490 1489 1488 1487 1486 1484 1483